Surface/Precipitation History
02/08/2016 19:42  to  2/9/2016 19:42
Change End Date:
Date/Time
(MST)
Sf
Temp Chem Water Layer Surface Precipitation
Sfc Pvt Sub Frz Factor Pct Dpth DpthThk IcePct Cond Salin FI Type Intens Accum Rate
02/09/2016 19:30 Error 34.7F - 31F - - - - - - 1 mhos 62 - None None 0.00 in 0.0 iph
02/09/2016 19:28 Error 34.7F - 31F - - - - - - 1 mhos 61 - None None 0.00 in 0.0 iph
02/09/2016 19:18 Error 35.1F - 31F - - - - - - 1 mhos 57 - None None 0.00 in 0.0 iph
02/09/2016 19:15 Error 35.4F - 31F - - - - - - 1 mhos 56 - None None 0.00 in 0.0 iph
02/09/2016 19:07 Error 35.8F - 31F - - - - - - 1 mhos 53 - None None 0.00 in 0.0 iph
02/09/2016 19:00 Error 36.1F - 31F - - - - - - 0 mhos 49 - None None 0.00 in 0.0 iph
02/09/2016 18:57 Error 36.9F - 31F - - - - - - 0 mhos 48 - None None 0.00 in 0.0 iph
02/09/2016 18:47 Error 36.9F - 31F - - - - - - 0 mhos 41 - None None 0.00 in 0.0 iph
02/09/2016 18:45 Error 36.7F - 31F - - - - - - 0 mhos 39 - None None 0.00 in 0.0 iph
02/09/2016 18:37 Error 36.5F - 31F - - - - - - 0 mhos 34 - None None 0.00 in 0.0 iph
02/09/2016 18:30 Error 37.4F - 31F - - - - - - 0 mhos 29 - None None 0.00 in 0.0 iph
02/09/2016 18:27 Error 37.8F - 31F - - - - - - 0 mhos 28 - None None 0.00 in 0.0 iph
02/09/2016 18:17 Error 37.9F - 31F - - - - - - 0 mhos 21 - None None 0.00 in 0.0 iph
02/09/2016 18:15 Error 37.9F - 31F - - - - - - 0 mhos 20 - None None 0.00 in 0.0 iph
02/09/2016 18:07 Error 38.7F - 31F - - - - - - 0 mhos 18 - None None 0.00 in 0.0 iph
Date/Time
(MST)
Sf
Temp Chem Water Layer Surface Precipitation
Sfc Pvt Sub Frz Factor Pct Dpth DpthThk IcePct Cond Salin FI Type Intens Accum Rate
02/09/2016 18:00 Error 38.5F - 31F - - - - - - 0 mhos 14 - None None 0.00 in 0.0 iph
02/09/2016 17:57 Error 39.0F - 31F - - - - - - 0 mhos 13 - None None 0.00 in 0.0 iph
02/09/2016 17:47 Error 39.7F - 31F - - - - - - 0 mhos 10 - None None 0.00 in 0.0 iph
02/09/2016 17:45 Error 39.9F - 31F - - - - - - 0 mhos 9 - None None 0.00 in 0.0 iph
02/09/2016 17:37 Error 40.5F - 31F - - - - - - 0 mhos 6 - None None 0.00 in 0.0 iph
02/09/2016 17:30 Error 40.8F - 31F - - - - - - 0 mhos 2 - None None 0.00 in 0.0 iph
02/09/2016 17:27 Error 41.2F - 31F - - - - - - 0 mhos 2 - None None 0.00 in 0.0 iph
02/09/2016 17:17 Error 42.1F - 31F - - - - - - 0 mhos 2 - None None 0.00 in 0.0 iph
02/09/2016 17:15 Error 42.1F - 31F - - - - - - 0 mhos 1 - None None 0.00 in 0.0 iph
02/09/2016 17:07 Error 43.2F - 31F - - - - - - 0 mhos 1 - None None 0.00 in 0.0 iph
02/09/2016 17:00 Error 43.7F - 31F - - - - - - 0 mhos 1 - None None 0.00 in 0.0 iph
02/09/2016 16:57 Error 44.1F - 31F - - - - - - 0 mhos 1 - None None 0.00 in 0.0 iph
02/09/2016 16:47 Error 45.7F - 31F - - - - - - 0 mhos 1 - None None 0.00 in 0.0 iph
02/09/2016 16:45 Error 45.9F - 31F - - - - - - 0 mhos 1 - None None 0.00 in 0.0 iph
02/09/2016 16:37 Error 47.8F - 31F - - - - - - 0 mhos 1 - None None 0.00 in 0.0 iph
Date/Time
(MST)
Sf
Temp Chem Water Layer Surface Precipitation
Sfc Pvt Sub Frz Factor Pct Dpth DpthThk IcePct Cond Salin FI Type Intens Accum Rate
02/09/2016 16:30 Dry 50.5F - 31F - - - - - - 0 mhos 0 - None None 0.00 in 0.0 iph
02/09/2016 16:27 Wet 51.6F - 31F 32F 5 0% 0.30 in - 0% 0 mhos 1 - None None 0.00 in 0.0 iph
02/09/2016 16:17 Dry 52.5F - 31F - - - - - - 0 mhos 1 - None None 0.00 in 0.0 iph
02/09/2016 16:15 Wet 52.7F - 31F 32F 15 0% 0.30 in - 0% 0 mhos 1 - None None 0.00 in 0.0 iph
02/09/2016 16:06 Error 53.1F - 31F - - - - - - 0 mhos 2 - None None 0.00 in 0.0 iph
02/09/2016 16:00 Error 53.4F - 31F - - - - - - 0 mhos 2 - None None 0.00 in 0.0 iph
02/09/2016 15:56 Error 54.0F - 31F - - - - - - 0 mhos 3 - None None 0.00 in 0.0 iph
02/09/2016 15:46 Wet 54.9F - 31F 32F 20 0% 0.00 in - 0% 0 mhos 4 - None None 0.00 in 0.0 iph
02/09/2016 15:45 Error 54.9F - 31F - - - - - - 0 mhos 4 - None None 0.00 in 0.0 iph
02/09/2016 15:36 Error 55.2F - 31F - - - - - - 0 mhos 8 - None None 0.00 in 0.0 iph
02/09/2016 15:30 Error 55.4F - 31F - - - - - - 0 mhos 11 - None None 0.00 in 0.0 iph
02/09/2016 15:26 Error 55.4F - 31F - - - - - - 0 mhos 12 - None None 0.00 in 0.0 iph
02/09/2016 15:16 Error 56.3F - 31F - - - - - - 0 mhos 17 - None None 0.00 in 0.0 iph
02/09/2016 15:15 Error 56.1F - 31F - - - - - - 0 mhos 18 - None None 0.00 in 0.0 iph
02/09/2016 15:06 Error 56.7F - 31F - - - - - - 0 mhos 24 - None None 0.00 in 0.0 iph
Date/Time
(MST)
Sf
Temp Chem Water Layer Surface Precipitation
Sfc Pvt Sub Frz Factor Pct Dpth DpthThk IcePct Cond Salin FI Type Intens Accum Rate
02/09/2016 15:00 Error 56.8F - 31F - - - - - - 0 mhos 28 - None None 0.00 in 0.0 iph
02/09/2016 14:56 Error 57.0F - 31F - - - - - - 0 mhos 30 - None None 0.00 in 0.0 iph
02/09/2016 14:46 Error 57.6F - 31F - - - - - - 0 mhos 0 - None None 0.00 in 0.0 iph
02/09/2016 14:45 Error 57.6F - 31F - - - - - - 0 mhos 0 - None None 0.00 in 0.0 iph
02/09/2016 14:36 Dry 57.0F - 31F - - - - - - 0 mhos 0 - None None 0.00 in 0.0 iph
02/09/2016 14:30 Error 57.0F - 31F - - - - - - 0 mhos 0 - None None 0.00 in 0.0 iph
02/09/2016 14:26 Dry 57.6F - 31F - - - - - - 0 mhos 0 - None None 0.00 in 0.0 iph
02/09/2016 14:16 Dry 57.7F - 31F - - - - - - 0 mhos 0 - None None 0.00 in 0.0 iph
02/09/2016 14:15 Dry 57.6F - 31F - - - - - - 0 mhos 0 - None None 0.00 in 0.0 iph
02/09/2016 14:06 Dry 57.0F - 31F - - - - - - 0 mhos 1 - None None 0.00 in 0.0 iph
02/09/2016 14:00 Dry 57.0F - 31F - - - - - - 0 mhos 2 - None None 0.00 in 0.0 iph
02/09/2016 13:56 Dry 56.5F - 31F - - - - - - 0 mhos 2 - None None 0.00 in 0.0 iph
02/09/2016 13:46 Dry 55.8F - 31F - - - - - - 0 mhos 5 - None None 0.00 in 0.0 iph
02/09/2016 13:45 Dry 55.8F - 31F - - - - - - 0 mhos 5 - None None 0.00 in 0.0 iph
02/09/2016 13:36 Dry 54.9F - 31F - - - - - - 0 mhos 12 - None None 0.00 in 0.0 iph
Date/Time
(MST)
Sf
Temp Chem Water Layer Surface Precipitation
Sfc Pvt Sub Frz Factor Pct Dpth DpthThk IcePct Cond Salin FI Type Intens Accum Rate
02/09/2016 13:30 Dry 54.5F - 31F - - - - - - 0 mhos 19 - None None 0.00 in 0.0 iph
02/09/2016 13:26 Dry 54.1F - 31F - - - - - - 0 mhos 27 - None None 0.00 in 0.0 iph
02/09/2016 13:15 Dry 52.9F - 31F - - - - - - 1 mhos 46 - None None 0.00 in 0.0 iph
02/09/2016 13:15 Dry 52.9F - 31F - - - - - - 1 mhos 46 - None None 0.00 in 0.0 iph
02/09/2016 13:05 Dry 50.9F - 31F - - - - - - 1 mhos 70 - None None 0.00 in 0.0 iph
02/09/2016 13:00 Dry 49.6F - 31F - - - - - - 1 mhos 79 - None None 0.00 in 0.0 iph
02/09/2016 12:55 Dry 48.0F - 31F - - - - - - 1 mhos 88 - None None 0.00 in 0.0 iph
02/09/2016 12:45 Wet 45.1F - 31F 32F 15 0% 0.00 in - 0% 1 mhos 108 - None None 0.00 in 0.0 iph
02/09/2016 12:45 Wet 45.1F - 31F 32F 15 0% 0.00 in - 0% 1 mhos 108 - None None 0.00 in 0.0 iph
02/09/2016 12:35 Error 39.2F - 31F - - - - - - 1 mhos 126 - None None 0.00 in 0.0 iph
02/09/2016 12:30 Error 35.8F - 31F - - - - - - 1 mhos 137 - None None 0.00 in 0.0 iph
02/09/2016 12:25 Error 34.2F - 31F - - - - - - 1 mhos 143 - None None 0.00 in 0.0 iph
02/09/2016 12:15 Error 34.3F - 31F - - - - - - 2 mhos 168 - None None 0.00 in 0.0 iph
02/09/2016 12:15 Error 34.3F - 31F - - - - - - 2 mhos 168 - None None 0.00 in 0.0 iph
02/09/2016 12:05 Error 34.0F - 31F - - - - - - 2 mhos 237 - None None 0.00 in 0.0 iph
Date/Time
(MST)
Sf
Temp Chem Water Layer Surface Precipitation
Sfc Pvt Sub Frz Factor Pct Dpth DpthThk IcePct Cond Salin FI Type Intens Accum Rate
02/09/2016 12:00 Error 32.4F - 31F - - - - - - 3 mhos 282 - None None 0.00 in 0.0 iph
02/09/2016 11:55 Error 32.5F - 31F - - - - - - 3 mhos 331 - None None 0.00 in 0.0 iph
02/09/2016 11:45 Error 32.2F - 31F - - - - - - 4 mhos 397 - None None 0.00 in 0.0 iph
02/09/2016 11:45 Error 32.2F - 31F - - - - - - 4 mhos 397 - None None 0.00 in 0.0 iph
02/09/2016 11:35 Error 32.2F - 31F - - - - - - 4 mhos 460 - None None 0.00 in 0.0 iph
02/09/2016 11:30 Error 31.5F - 31F - - - - - - 5 mhos 519 - None None 0.00 in 0.0 iph
02/09/2016 11:25 Error 31.5F - 31F - - - - - - 5 mhos 591 - None None 0.00 in 0.0 iph
02/09/2016 11:15 Error 31.5F - 31F - - - - - - 7 mhos 706 - None None 0.00 in 0.0 iph
02/09/2016 11:15 Error 31.5F - 31F - - - - - - 7 mhos 706 - None None 0.00 in 0.0 iph
02/09/2016 11:05 Error 30.6F - 31F - - - - - - 7 mhos 767 - None None 0.00 in 0.0 iph
02/09/2016 11:00 Error 30.4F - 31F - - - - - - 7 mhos 793 - None None 0.00 in 0.0 iph
02/09/2016 10:55 Error 30.0F - 31F - - - - - - 7 mhos 818 - None None 0.00 in 0.0 iph
02/09/2016 10:45 Error 29.3F - 31F - - - - - - 8 mhos 848 - None None 0.00 in 0.0 iph
02/09/2016 10:45 Error 29.3F - 31F - - - - - - 8 mhos 848 - None None 0.00 in 0.0 iph
02/09/2016 10:35 Error 30.0F - 31F - - - - - - 8 mhos 845 - None None 0.00 in 0.0 iph
Date/Time
(MST)
Sf
Temp Chem Water Layer Surface Precipitation
Sfc Pvt Sub Frz Factor Pct Dpth DpthThk IcePct Cond Salin FI Type Intens Accum Rate
02/09/2016 10:30 Error 29.7F - 31F - - - - - - 8 mhos 849 - None None 0.00 in 0.0 iph
02/09/2016 10:24 Error 29.8F - 31F - - - - - - 8 mhos 852 - None None 0.00 in 0.0 iph
02/09/2016 10:15 Error 28.8F - 31F - - - - - - 7 mhos 822 - None None 0.00 in 0.0 iph
02/09/2016 10:14 Error 28.8F - 31F - - - - - - 7 mhos 822 - None None 0.00 in 0.0 iph
02/09/2016 10:04 Error 28.6F - 31F - - - - - - 7 mhos 815 - None None 0.00 in 0.0 iph
02/09/2016 10:00 Error 28.6F - 31F - - - - - - 7 mhos 808 - None None 0.00 in 0.0 iph
02/09/2016 09:54 Error 28.2F - 31F - - - - - - 7 mhos 801 - None None 0.00 in 0.0 iph
02/09/2016 09:45 Error 28.4F - 31F - - - - - - 7 mhos 793 - None None 0.00 in 0.0 iph
02/09/2016 09:44 Error 28.4F - 31F - - - - - - 7 mhos 793 - None None 0.00 in 0.0 iph
02/09/2016 09:34 Error 27.7F - 31F - - - - - - 7 mhos 805 - None None 0.00 in 0.0 iph
02/09/2016 09:30 Error 28.0F - 31F - - - - - - 7 mhos 809 - None None 0.00 in 0.0 iph
02/09/2016 09:24 Error 27.7F - 31F - - - - - - 7 mhos 827 - None None 0.00 in 0.0 iph
02/09/2016 09:15 Error 27.7F - 31F - - - - - - 7 mhos 809 - None None 0.00 in 0.0 iph
02/09/2016 09:14 Error 27.7F - 31F - - - - - - 7 mhos 809 - None None 0.00 in 0.0 iph
02/09/2016 09:04 Error 27.7F - 31F - - - - - - 6 mhos 681 - None None 0.00 in 0.0 iph
Date/Time
(MST)
Sf
Temp Chem Water Layer Surface Precipitation
Sfc Pvt Sub Frz Factor Pct Dpth DpthThk IcePct Cond Salin FI Type Intens Accum Rate
02/09/2016 09:00 Error 27.3F - 31F - - - - - - 6 mhos 637 - None None 0.00 in 0.0 iph
02/09/2016 08:54 Error 27.5F - 31F - - - - - - 5 mhos 617 - None None 0.00 in 0.0 iph
02/09/2016 08:45 Error 27.7F - 31F - - - - - - 5 mhos 583 - None None 0.00 in 0.0 iph
02/09/2016 08:44 Error 27.7F - 31F - - - - - - 5 mhos 583 - None None 0.00 in 0.0 iph
02/09/2016 08:34 Error 27.7F - 31F - - - - - - 5 mhos 595 - None None 0.00 in 0.0 iph
02/09/2016 08:30 Error 27.7F - 31F - - - - - - 5 mhos 584 - None None 0.00 in 0.0 iph
02/09/2016 08:24 Error 27.7F - 31F - - - - - - 5 mhos 568 - None None 0.00 in 0.0 iph
02/09/2016 08:15 Error 27.7F - 31F - - - - - - 5 mhos 548 - None None 0.00 in 0.0 iph
02/09/2016 08:14 Error 27.7F - 31F - - - - - - 5 mhos 547 - None None 0.00 in 0.0 iph
02/09/2016 08:04 Error 27.9F - 31F - - - - - - 4 mhos 508 - None None 0.00 in 0.0 iph
02/09/2016 08:00 Error 27.7F - 31F - - - - - - 4 mhos 497 - None None 0.00 in 0.0 iph
02/09/2016 07:54 Error 27.7F - 31F - - - - - - 4 mhos 483 - None None 0.00 in 0.0 iph
02/09/2016 07:45 Error 27.7F - 31F - - - - - - 4 mhos 463 - None None 0.00 in 0.0 iph
02/09/2016 07:44 Error 27.9F - 31F - - - - - - 4 mhos 462 - None None 0.00 in 0.0 iph
02/09/2016 07:33 Error 27.3F - 31F - - - - - - 4 mhos 437 - None None 0.00 in 0.0 iph
Date/Time
(MST)
Sf
Temp Chem Water Layer Surface Precipitation
Sfc Pvt Sub Frz Factor Pct Dpth DpthThk IcePct Cond Salin FI Type Intens Accum Rate
02/09/2016 07:30 Error 27.3F - 31F - - - - - - 4 mhos 432 - None None 0.00 in 0.0 iph
02/09/2016 07:23 Error 27.3F - 31F - - - - - - 4 mhos 422 - None None 0.00 in 0.0 iph
02/09/2016 07:15 Error 27.3F - 31F - - - - - - 4 mhos 403 - None None 0.00 in 0.0 iph
02/09/2016 07:13 Error 27.3F - 31F - - - - - - 3 mhos 389 - None None 0.00 in 0.0 iph
02/09/2016 07:03 Error 27.1F - 31F - - - - - - 3 mhos 372 - None None 0.00 in 0.0 iph
02/09/2016 07:00 Error 27.3F - 31F - - - - - - 3 mhos 365 - None None 0.00 in 0.0 iph
02/09/2016 06:53 Error 27.3F - 31F - - - - - - 3 mhos 342 - None None 0.00 in 0.0 iph
02/09/2016 06:45 Error 26.8F - 31F - - - - - - 3 mhos 326 - None None 0.00 in 0.0 iph
02/09/2016 06:43 Error 26.8F - 31F - - - - - - 3 mhos 321 - None None 0.00 in 0.0 iph
02/09/2016 06:33 Error 26.8F - 31F - - - - - - 2 mhos 287 - None None 0.00 in 0.0 iph
02/09/2016 06:30 Error 26.8F - 31F - - - - - - 2 mhos 277 - None None 0.00 in 0.0 iph
02/09/2016 06:23 Error 26.6F - 31F - - - - - - 2 mhos 268 - None None 0.00 in 0.0 iph
02/09/2016 06:15 Error 27.0F - 31F - - - - - - 2 mhos 242 - None None 0.00 in 0.0 iph
02/09/2016 06:13 Error 26.8F - 31F - - - - - - 2 mhos 238 - None None 0.00 in 0.0 iph
02/09/2016 06:03 Error 26.6F - 31F - - - - - - 2 mhos 195 - None None 0.00 in 0.0 iph
Date/Time
(MST)
Sf
Temp Chem Water Layer Surface Precipitation
Sfc Pvt Sub Frz Factor Pct Dpth DpthThk IcePct Cond Salin FI Type Intens Accum Rate
02/09/2016 06:00 Error 26.8F - 31F - - - - - - 2 mhos 187 - None None 0.00 in 0.0 iph
02/09/2016 05:53 Error 26.4F - 31F - - - - - - 1 mhos 165 - None None 0.00 in 0.0 iph
02/09/2016 05:45 Error 26.4F - 31F - - - - - - 1 mhos 150 - None None 0.00 in 0.0 iph
02/09/2016 05:43 Error 26.6F - 31F - - - - - - 1 mhos 147 - None None 0.00 in 0.0 iph
02/09/2016 05:33 Error 26.8F - 31F - - - - - - 1 mhos 133 - None None 0.00 in 0.0 iph
02/09/2016 05:30 Error 27.0F - 31F - - - - - - 1 mhos 131 - None None 0.00 in 0.0 iph
02/09/2016 05:23 Error 27.0F - 31F - - - - - - 1 mhos 119 - None None 0.00 in 0.0 iph
02/09/2016 05:15 Error 26.6F - 31F - - - - - - 1 mhos 108 - None None 0.00 in 0.0 iph
02/09/2016 05:13 Error 26.6F - 31F - - - - - - 1 mhos 103 - None None 0.00 in 0.0 iph
02/09/2016 05:03 Error 26.1F - 31F - - - - - - 1 mhos 89 - None None 0.00 in 0.0 iph
02/09/2016 05:00 Error 25.9F - 31F - - - - - - 1 mhos 86 - None None 0.00 in 0.0 iph
02/09/2016 04:53 Error 25.7F - 31F - - - - - - 1 mhos 82 - None None 0.00 in 0.0 iph
02/09/2016 04:45 Error 25.9F - 31F - - - - - - 1 mhos 77 - None None 0.00 in 0.0 iph
02/09/2016 04:43 Error 25.9F - 31F - - - - - - 1 mhos 76 - None None 0.00 in 0.0 iph
02/09/2016 04:32 Error 26.2F - 31F - - - - - - 1 mhos 70 - None None 0.00 in 0.0 iph
Date/Time
(MST)
Sf
Temp Chem Water Layer Surface Precipitation
Sfc Pvt Sub Frz Factor Pct Dpth DpthThk IcePct Cond Salin FI Type Intens Accum Rate
02/09/2016 04:30 Error 26.4F - 31F - - - - - - 1 mhos 69 - None None 0.00 in 0.0 iph
02/09/2016 04:22 Error 26.6F - 31F - - - - - - 1 mhos 65 - None None 0.00 in 0.0 iph
02/09/2016 04:15 Error 26.8F - 31F - - - - - - 1 mhos 63 - None None 0.00 in 0.0 iph
02/09/2016 04:12 Error 26.8F - 31F - - - - - - 1 mhos 61 - None None 0.00 in 0.0 iph
02/09/2016 04:02 Error 27.1F - 31F - - - - - - 1 mhos 58 - None None 0.00 in 0.0 iph
02/09/2016 04:00 Error 27.1F - 31F - - - - - - 0 mhos 56 - None None 0.00 in 0.0 iph
02/09/2016 03:52 Error 26.8F - 31F - - - - - - 0 mhos 48 - None None 0.00 in 0.0 iph
02/09/2016 03:45 Error 26.1F - 31F - - - - - - 0 mhos 40 - None None 0.00 in 0.0 iph
02/09/2016 03:42 Error 25.9F - 31F - - - - - - 0 mhos 38 - None None 0.00 in 0.0 iph
02/09/2016 03:32 Error 25.9F - 31F - - - - - - 0 mhos 29 - None None 0.00 in 0.0 iph
02/09/2016 03:30 Error 25.5F - 31F - - - - - - 0 mhos 25 - None None 0.00 in 0.0 iph
02/09/2016 03:22 Error 25.7F - 31F - - - - - - 0 mhos 20 - None None 0.00 in 0.0 iph
02/09/2016 03:15 Error 25.9F - 31F - - - - - - 0 mhos 16 - None None 0.00 in 0.0 iph
02/09/2016 03:12 Error 25.9F - 31F - - - - - - 0 mhos 15 - None None 0.00 in 0.0 iph
02/09/2016 03:02 Error 26.1F - 31F - - - - - - 0 mhos 30 - None None 0.00 in 0.0 iph
Date/Time
(MST)
Sf
Temp Chem Water Layer Surface Precipitation
Sfc Pvt Sub Frz Factor Pct Dpth DpthThk IcePct Cond Salin FI Type Intens Accum Rate
02/09/2016 03:00 Error 26.1F - 31F - - - - - - 0 mhos 30 - None None 0.00 in 0.0 iph
02/09/2016 02:52 Error 26.4F - 31F - - - - - - 0 mhos 29 - None None 0.00 in 0.0 iph
02/09/2016 02:45 Error 26.4F - 31F - - - - - - 0 mhos 29 - None None 0.00 in 0.0 iph
02/09/2016 02:42 Error 26.1F - 31F - - - - - - 0 mhos 29 - None None 0.00 in 0.0 iph
02/09/2016 02:32 Error 26.2F - 31F - - - - - - 0 mhos 28 - None None 0.00 in 0.0 iph
02/09/2016 02:30 Error 26.4F - 31F - - - - - - 0 mhos 28 - None None 0.00 in 0.0 iph
02/09/2016 02:22 Error 26.4F - 31F - - - - - - 0 mhos 28 - None None 0.00 in 0.0 iph
02/09/2016 02:15 Error 26.4F - 31F - - - - - - 0 mhos 27 - None None 0.00 in 0.0 iph
02/09/2016 02:12 Error 26.2F - 31F - - - - - - 0 mhos 27 - None None 0.00 in 0.0 iph
02/09/2016 02:02 Error 26.6F - 31F - - - - - - 0 mhos 28 - None None 0.00 in 0.0 iph
02/09/2016 02:00 Error 26.8F - 31F - - - - - - 0 mhos 28 - None None 0.00 in 0.0 iph
02/09/2016 01:51 Error 27.1F - 31F - - - - - - 0 mhos 27 - None None 0.00 in 0.0 iph
02/09/2016 01:45 Error 26.8F - 31F - - - - - - 0 mhos 27 - None None 0.00 in 0.0 iph
02/09/2016 01:41 Error 26.8F - 31F - - - - - - 0 mhos 27 - None None 0.00 in 0.0 iph
02/09/2016 01:31 Error 27.1F - 31F - - - - - - 0 mhos 27 - None None 0.00 in 0.0 iph
Date/Time
(MST)
Sf
Temp Chem Water Layer Surface Precipitation
Sfc Pvt Sub Frz Factor Pct Dpth DpthThk IcePct Cond Salin FI Type Intens Accum Rate
02/09/2016 01:30 Error 27.3F - 31F - - - - - - 0 mhos 27 - None None 0.00 in 0.0 iph
02/09/2016 01:21 Error 27.7F - 31F - - - - - - 0 mhos 27 - None None 0.00 in 0.0 iph
02/09/2016 01:15 Error 27.7F - 31F - - - - - - 0 mhos 27 - None None 0.00 in 0.0 iph
02/09/2016 01:11 Error 27.5F - 31F - - - - - - 0 mhos 27 - None None 0.00 in 0.0 iph
02/09/2016 01:01 Error 27.5F - 31F - - - - - - 0 mhos 27 - None None 0.00 in 0.0 iph
02/09/2016 01:00 Error 26.8F - 31F - - - - - - 0 mhos 27 - None None 0.00 in 0.0 iph
02/09/2016 00:51 Error 26.8F - 31F - - - - - - 0 mhos 27 - None None 0.00 in 0.0 iph
02/09/2016 00:45 Error 26.8F - 31F - - - - - - 0 mhos 26 - None None 0.00 in 0.0 iph
02/09/2016 00:41 Error 27.0F - 31F - - - - - - 0 mhos 26 - None None 0.00 in 0.0 iph
02/09/2016 00:31 Error 27.7F - 31F - - - - - - 0 mhos 26 - None None 0.00 in 0.0 iph
02/09/2016 00:30 Error 27.5F - 31F - - - - - - 0 mhos 26 - None None 0.00 in 0.0 iph
02/09/2016 00:21 Error 27.0F - 31F - - - - - - 0 mhos 26 - None None 0.00 in 0.0 iph
02/09/2016 00:15 Error 27.3F - 31F - - - - - - 0 mhos 26 - None None 0.00 in 0.0 iph
02/09/2016 00:11 Error 27.7F - 31F - - - - - - 0 mhos 26 - None None 0.00 in 0.0 iph
02/09/2016 00:01 Error 27.7F - 31F - - - - - - 0 mhos 26 - None None 0.00 in 0.0 iph
Date/Time
(MST)
Sf
Temp Chem Water Layer Surface Precipitation
Sfc Pvt Sub Frz Factor Pct Dpth DpthThk IcePct Cond Salin FI Type Intens Accum Rate
02/09/2016 00:00 Error 27.7F - 31F - - - - - - 0 mhos 26 - None None 0.00 in 0.0 iph
02/08/2016 23:51 Error 27.5F - 31F - - - - - - 0 mhos 26 - None None 0.00 in 0.0 iph
02/08/2016 23:45 Error 27.7F - 31F - - - - - - 0 mhos 26 - None None 0.00 in 0.0 iph
02/08/2016 23:41 Error 27.9F - 31F - - - - - - 0 mhos 26 - None None 0.00 in 0.0 iph
02/08/2016 23:31 Error 27.9F - 31F - - - - - - 0 mhos 26 - None None 0.00 in 0.0 iph
02/08/2016 23:30 Error 27.9F - 31F - - - - - - 0 mhos 26 - None None 0.00 in 0.0 iph
02/08/2016 23:21 Error 28.4F - 31F - - - - - - 0 mhos 26 - None None 0.00 in 0.0 iph
02/08/2016 23:15 Error 28.6F - 31F - - - - - - 0 mhos 26 - None None 0.00 in 0.0 iph
02/08/2016 23:10 Error 28.6F - 31F - - - - - - 0 mhos 26 - None None 0.00 in 0.0 iph
02/08/2016 23:00 Error 28.4F - 31F - - - - - - 0 mhos 26 - None None 0.00 in 0.0 iph
02/08/2016 23:00 Error 28.4F - 31F - - - - - - 0 mhos 26 - None None 0.00 in 0.0 iph
02/08/2016 22:50 Error 28.9F - 31F - - - - - - 0 mhos 26 - None None 0.00 in 0.0 iph
02/08/2016 22:45 Error 28.8F - 31F - - - - - - 0 mhos 26 - None None 0.00 in 0.0 iph
02/08/2016 22:40 Error 28.8F - 31F - - - - - - 0 mhos 26 - None None 0.00 in 0.0 iph
02/08/2016 22:30 Error 28.9F - 31F - - - - - - 0 mhos 26 - None None 0.00 in 0.0 iph
Date/Time
(MST)
Sf
Temp Chem Water Layer Surface Precipitation
Sfc Pvt Sub Frz Factor Pct Dpth DpthThk IcePct Cond Salin FI Type Intens Accum Rate
02/08/2016 22:30 Error 28.9F - 31F - - - - - - 0 mhos 26 - None None 0.00 in 0.0 iph
02/08/2016 22:20 Error 29.1F - 31F - - - - - - 0 mhos 26 - None None 0.00 in 0.0 iph
02/08/2016 22:15 Error 29.1F - 31F - - - - - - 0 mhos 26 - None None 0.00 in 0.0 iph
02/08/2016 22:10 Error 29.8F - 31F - - - - - - 0 mhos 26 - None None 0.00 in 0.0 iph
02/08/2016 22:00 Error 29.3F - 31F - - - - - - 0 mhos 26 - None None 0.00 in 0.0 iph
02/08/2016 22:00 Error 29.3F - 31F - - - - - - 0 mhos 26 - None None 0.00 in 0.0 iph
02/08/2016 21:50 Error 29.8F - 31F - - - - - - 0 mhos 27 - None None 0.00 in 0.0 iph
02/08/2016 21:45 Error 29.8F - 31F - - - - - - 0 mhos 27 - None None 0.00 in 0.0 iph
02/08/2016 21:40 Error 29.7F - 31F - - - - - - 0 mhos 27 - None None 0.00 in 0.0 iph
02/08/2016 21:30 Error 30.2F - 31F - - - - - - 0 mhos 28 - None None 0.00 in 0.0 iph
02/08/2016 21:30 Error 30.2F - 31F - - - - - - 0 mhos 28 - None None 0.00 in 0.0 iph
02/08/2016 21:20 Error 30.4F - 31F - - - - - - 0 mhos 28 - None None 0.00 in 0.0 iph
02/08/2016 21:15 Error 30.9F - 31F - - - - - - 0 mhos 28 - None None 0.00 in 0.0 iph
02/08/2016 21:10 Error 30.0F - 31F - - - - - - 0 mhos 29 - None None 0.00 in 0.0 iph
02/08/2016 21:00 Error 30.0F - 31F - - - - - - 0 mhos 29 - None None 0.00 in 0.0 iph
Date/Time
(MST)
Sf
Temp Chem Water Layer Surface Precipitation
Sfc Pvt Sub Frz Factor Pct Dpth DpthThk IcePct Cond Salin FI Type Intens Accum Rate
02/08/2016 21:00 Error 30.0F - 31F - - - - - - 0 mhos 29 - None None 0.00 in 0.0 iph
02/08/2016 20:50 Error 30.9F - 31F - - - - - - 0 mhos 30 - None None 0.00 in 0.0 iph
02/08/2016 20:45 Error 30.6F - 31F - - - - - - 0 mhos 31 - None None 0.00 in 0.0 iph
02/08/2016 20:40 Error 30.9F - 31F - - - - - - 0 mhos 31 - None None 0.00 in 0.0 iph
02/08/2016 20:30 Error 31.1F - 31F - - - - - - 0 mhos 33 - None None 0.00 in 0.0 iph
02/08/2016 20:30 Error 31.1F - 31F - - - - - - 0 mhos 33 - None None 0.00 in 0.0 iph
02/08/2016 20:19 Error 31.1F - 31F - - - - - - 0 mhos 34 - None None 0.00 in 0.0 iph
02/08/2016 20:15 Error 31.1F - 31F - - - - - - 0 mhos 35 - None None 0.00 in 0.0 iph
02/08/2016 20:09 Error 31.3F - 31F - - - - - - 0 mhos 36 - None None 0.00 in 0.0 iph
02/08/2016 20:00 Error 31.5F - 31F - - - - - - 0 mhos 38 - None None 0.00 in 0.0 iph
02/08/2016 19:59 Error 31.5F - 31F - - - - - - 0 mhos 38 - None None 0.00 in 0.0 iph
02/08/2016 19:49 Error 31.6F - 31F - - - - - - 0 mhos 42 - None None 0.00 in 0.0 iph
02/08/2016 19:45 Error 31.6F - 31F - - - - - - 0 mhos 45 - None None 0.00 in 0.0 iph
Change End Date:

Copyright © 1998-2015 Vaisala, Inc.
All Rights Reserved
Send comments about the data to:
SCAN Web ® is a registered trademark of Vaisala, Inc.
SCAN Web Version 6.0